EW4271 Weather Reports


time (UTC)temp
C
wind
direction
speed
KPH
gust
KPH
rain 1hr
cm
rain 24hr
cm
rain mn
cm
humidity
%
barometer
mb
20240418180528 18 204 1.6 16.1 0.00 0.00 0.00 21 1021.9
20240418180022 18 74 4.8 16.1 0.00 0.00 0.00 22 1021.9
20240418175520 18 202 0.0 12.9 0.00 0.00 0.00 22 1022.0
20240418175015 18 109 0.0 11.3 0.00 0.00 0.00 22 1022.0
20240418174529 18 143 4.8 11.3 0.00 0.00 0.00 22 1022.0
20240418174023 17 142 0.0 16.1 0.00 0.00 0.00 22 1022.1
20240418173539 17 115 3.2 16.1 0.00 0.00 0.00 22 1022.2
20240418173052 17 76 0.0 11.3 0.00 0.00 0.00 23 1022.4
20240418172525 17 117 1.6 14.5 0.00 0.00 0.00 23 1022.3
20240418172020 17 50 1.6 14.5 0.00 0.00 0.00 23 1022.4
20240418171517 17 155 0.0 3.2 0.00 0.00 0.00 25 1022.4
20240418171032 16 64 0.0 8.0 0.00 0.00 0.00 25 1022.4
20240418170525 16 74 3.2 8.0 0.00 0.00 0.00 26 1022.4
20240418170019 16 43 0.0 4.8 0.00 0.00 0.00 25 1022.6
20240418165532 16 126 0.0 6.4 0.00 0.00 0.00 25 1022.6
20240418165046 15 176 1.6 9.7 0.00 0.00 0.00 27 1022.6
20240418164539 15 36 3.2 12.9 0.00 0.00 0.00 26 1022.6
20240418164033 15 28 1.6 12.9 0.00 0.00 0.00 28 1022.7
20240418163527 15 65 4.8 8.0 0.00 0.00 0.00 27 1022.7
20240418163022 15 55 1.6 6.4 0.00 0.00 0.00 28 1022.7
20240418162520 15 88 0.0 4.8 0.00 0.00 0.00 27 1022.7
20240418162015 15 157 1.6 4.8 0.00 0.00 0.00 27 1022.6
20240418161528 15 124 0.0 3.2 0.00 0.00 0.00 27 1022.6
20240418161022 15 132 0.0 4.8 0.00 0.00 0.00 26 1022.5
20240418160516 15 13 0.0 3.2 0.00 0.00 0.00 27 1022.5
20240418160030 15 101 0.0 3.2 0.00 0.00 0.00 28 1022.4
20240418155525 15 120 0.0 3.2 0.00 0.00 0.00 28 1022.5
20240418155018 15 101 0.0 1.6 0.00 0.00 0.00 28 1022.4
20240418151522 15 43 1.6 4.8 0.00 0.00 0.00 28 1022.0
20240418151037 15 141 0.0 3.2 0.00 0.00 0.00 28 1022.0
20240418150551 15 128 0.0 4.8 0.00 0.00 0.00 29 1022.0
20240418150028 14 130 0.0 4.8 0.00 0.00 0.00 31 1022.0
20240418145542 14 57 0.0 3.2 0.00 0.00 0.00 32 1022.0
20240418145036 13 157 0.0 3.2 0.00 0.00 0.00 33 1021.8
20240418144529 12 186 0.0 3.2 0.00 0.00 0.00 35 1021.9
20240418144023 12 139 0.0 3.2 0.00 0.00 0.00 36 1021.8
20240418143518 11 60 0.0 0.0 0.00 0.00 0.00 40 1021.8
20240418143032 11 60 0.0 0.0 0.00 0.00 0.00 40 1021.8
20240418142527 10 143 0.0 0.0 0.00 0.00 0.00 45 1021.6
20240418142025 9 161 0.0 0.0 0.00 0.00 0.00 48 1021.7
20240418141520 8 205 0.0 0.0 0.00 0.00 0.00 51 1021.7
20240418141014 7 205 0.0 0.0 0.00 0.00 0.00 53 1021.6
20240418140529 7 252 0.0 0.0 0.00 0.00 0.00 54 1021.5
20240418140023 6 252 0.0 0.0 0.00 0.00 0.00 59 1021.4
20240418135517 6 252 0.0 0.0 0.00 0.00 0.00 59 1021.3
20240418135051 5 252 0.0 0.0 0.00 0.00 0.00 59 1021.3
20240418134525 5 252 0.0 0.0 0.00 0.00 0.00 59 1021.2
20240418134024 5 252 0.0 0.0 0.00 0.00 0.00 60 1021.2
20240418133537 4 252 0.0 0.0 0.00 0.00 0.00 59 1021.2
20240418133030 4 252 0.0 0.0 0.00 0.00 0.00 58 1021.3
20240418132525 3 294 0.0 0.0 0.00 0.00 0.00 57 1021.3
20240418132018 3 294 0.0 0.0 0.00 0.00 0.00 58 1021.2
20240418131531 3 294 0.0 0.0 0.00 0.00 0.00 58 1021.3
20240418131046 3 294 0.0 0.0 0.00 0.00 0.00 57 1021.3
20240418130519 3 294 0.0 0.0 0.00 0.00 0.00 56 1021.3
20240418130034 3 294 0.0 0.0 0.00 0.00 0.00 58 1021.2
20240418125526 3 294 0.0 0.0 0.00 0.00 0.00 57 1021.2
20240418125024 3 294 0.0 0.0 0.00 0.00 0.00 55 1021.1
20240418124537 3 294 0.0 0.0 0.00 0.00 0.00 55 1021.1
20240418124030 3 294 0.0 0.0 0.00 0.00 0.00 56 1021.0
20240418123544 3 294 0.0 0.0 0.00 0.00 0.00 54 1020.8
20240418123015 3 307 0.0 0.0 0.00 0.00 0.00 55 1020.8
20240418122530 3 281 0.0 0.0 0.00 0.00 0.00 55 1020.8
20240418122023 3 281 0.0 0.0 0.00 0.00 0.00 54 1020.7
20240418121516 3 281 0.0 0.0 0.00 0.00 0.00 53 1020.7
20240418121051 3 281 0.0 0.0 0.00 0.00 0.00 54 1020.7
20240418120524 3 281 0.0 0.0 0.00 0.00 0.00 52 1020.7
20240418120022 3 281 0.0 0.0 0.00 0.00 0.00 52 1020.7
20240418115515 3 281 0.0 0.0 0.00 0.00 0.00 51 1020.6
20240418115049 3 281 0.0 0.0 0.00 0.00 0.00 52 1020.6
20240418114522 4 281 0.0 0.0 0.00 0.00 0.00 51 1020.5
20240418114036 4 281 0.0 0.0 0.00 0.00 0.00 52 1020.5
20240418113527 4 281 0.0 0.0 0.00 0.00 0.00 51 1020.5
20240418113021 4 281 0.0 0.0 0.00 0.00 0.00 50 1020.4
20240418112515 5 281 0.0 0.0 0.00 0.00 0.00 50 1020.4
20240418112028 5 281 0.0 0.0 0.00 0.00 0.00 50 1020.3
20240418111547 5 281 0.0 0.0 0.00 0.00 0.00 49 1020.3
20240418111019 5 280 0.0 0.0 0.00 0.00 0.00 49 1020.3
20240418110534 5 280 0.0 0.0 0.00 0.00 0.00 50 1020.4
20240418110027 5 280 0.0 0.0 0.00 0.00 0.00 51 1020.5
20240418105521 5 255 0.0 0.0 0.00 0.00 0.00 51 1020.5
20240418105035 4 255 0.0 0.0 0.00 0.00 0.00 52 1020.4
20240418104528 4 255 0.0 0.0 0.00 0.00 0.00 52 1020.3
20240418104042 5 255 0.0 0.0 0.00 0.00 0.00 51 1020.3
20240418103554 5 255 0.0 0.0 0.00 0.00 0.00 49 1020.3
20240418103047 5 255 0.0 0.0 0.00 0.00 0.00 49 1020.2
20240418102524 5 255 0.0 0.0 0.00 0.00 0.00 49 1020.2
20240418102017 5 255 0.0 0.0 0.00 0.00 0.00 48 1020.2
20240418101552 5 209 0.0 0.0 0.00 0.00 0.00 49 1020.1
20240418101024 5 209 0.0 0.0 0.00 0.00 0.00 50 1020.1
20240418100537 4 209 0.0 0.0 0.00 0.00 0.00 52 1020.1
20240418100030 4 209 0.0 0.0 0.00 0.00 0.00 54 1020.0
20240418095524 4 209 0.0 0.0 0.00 0.00 0.00 52 1020.0
20240418095018 4 209 0.0 0.0 0.00 0.00 0.00 52 1020.1
20240418094550 4 209 0.0 0.0 0.00 0.00 0.00 52 1020.0
20240418094022 3 209 0.0 0.0 0.00 0.00 0.00 53 1020.1
20240418093541 4 209 0.0 0.0 0.00 0.00 0.00 53 1020.0
20240418093033 4 209 0.0 0.0 0.00 0.00 0.00 52 1019.9
20240418092527 4 209 0.0 0.0 0.00 0.00 0.00 52 1019.9
20240418092021 4 209 0.0 0.0 0.00 0.00 0.00 51 1019.8
20240418091514 4 209 0.0 0.0 0.00 0.00 0.00 50 1019.9
20240418091029 4 209 0.0 0.0 0.00 0.00 0.00 50 1019.9
20240418090522 4 209 0.0 0.0 0.00 0.00 0.00 49 1019.9
20240418090017 4 52 0.0 0.0 0.00 0.00 0.00 49 1019.8
20240418085514 5 289 0.0 0.0 0.00 0.00 0.00 49 1019.9
20240418085029 4 298 0.0 1.6 0.00 0.00 0.00 49 1019.8
20240418084522 4 41 0.0 1.6 0.00 0.00 0.00 49 1019.9
20240418084015 4 299 0.0 0.0 0.00 0.00 0.00 50 1019.8
20240418083527 5 328 0.0 0.0 0.00 0.00 0.00 49 1019.9
20240418083040 4 328 0.0 1.6 0.00 0.00 0.00 50 1019.9
20240418082533 4 330 0.0 1.6 0.00 0.00 0.00 50 1019.9
20240418082027 4 338 0.0 0.0 0.00 0.00 0.00 49 1020.1
20240418081521 4 338 0.0 0.0 0.00 0.00 0.00 49 1019.9
20240418081018 4 338 0.0 0.0 0.00 0.00 0.00 50 1020.0
20240418080552 5 338 0.0 0.0 0.00 0.00 0.00 50 1019.9
20240418080024 5 323 0.0 0.0 0.00 0.00 0.00 48 1019.9
20240418075519 5 323 0.0 0.0 0.00 0.00 0.00 47 1019.9
20240418075032 5 330 0.0 0.0 0.00 0.00 0.00 47 1019.9
20240418074547 5 330 0.0 0.0 0.00 0.00 0.00 48 1019.9
20240418074019 5 330 0.0 0.0 0.00 0.00 0.00 47 1019.9
20240418073531 5 330 0.0 0.0 0.00 0.00 0.00 48 1019.9
20240418073026 5 330 0.0 0.0 0.00 0.00 0.00 46 1019.9
20240418072540 5 331 0.0 0.0 0.00 0.00 0.00 46 1019.9
20240418072016 5 349 0.0 0.0 0.00 0.00 0.00 47 1019.9
20240418071529 5 349 0.0 0.0 0.00 0.00 0.00 47 1019.9
20240418071022 5 349 0.0 0.0 0.00 0.00 0.00 47 1020.0
20240418070537 5 349 0.0 0.0 0.00 0.00 0.00 47 1020.1
20240418070050 5 349 0.0 0.0 0.00 0.00 0.00 47 1020.1
20240418065543 5 339 0.0 1.6 0.00 0.00 0.00 47 1020.1
20240418065037 5 328 0.0 1.6 0.00 0.00 0.00 45 1020.1
20240418064529 5 350 0.0 0.0 0.00 0.00 0.00 45 1020.1
20240418064044 5 350 0.0 0.0 0.00 0.00 0.00 45 1020.1
20240418063516 5 350 0.0 0.0 0.00 0.00 0.00 45 1020.1
20240418063031 5 350 0.0 0.0 0.00 0.00 0.00 46 1020.1
20240418062544 5 350 0.0 0.0 0.00 0.00 0.00 46 1020.1
20240418062022 6 350 0.0 0.0 0.00 0.00 0.00 45 1020.1
20240418061516 6 350 0.0 0.0 0.00 0.00 0.00 47 1020.1
20240418061030 6 350 0.0 0.0 0.00 0.00 0.00 46 1019.9
20240418060523 6 350 0.0 0.0 0.00 0.00 0.00 46 1020.0
20240418060017 6 5 0.0 0.0 0.00 0.00 0.00 45 1020.0
20240418055530 6 5 0.0 0.0 0.00 0.00 0.00 45 1020.0
20240418055025 6 5 0.0 0.0 0.00 0.00 0.00 45 1020.0
20240418054524 6 5 0.0 0.0 0.00 0.00 0.00 45 1020.1
20240418054016 6 5 0.0 0.0 0.00 0.00 0.00 45 1020.0
20240418053530 6 5 0.0 0.0 0.00 0.00 0.00 44 1019.9
20240418053025 6 5 0.0 0.0 0.00 0.00 0.00 44 1019.9
20240418052518 6 5 0.0 1.6 0.00 0.00 0.00 44 1020.0
20240418052031 6 5 0.0 1.6 0.00 0.00 0.00 43 1019.9
20240418051524 6 256 0.0 0.0 0.00 0.00 0.00 43 1019.9
20240418051019 6 236 0.0 0.0 0.00 0.00 0.00 44 1020.0
20240418050516 7 332 0.0 0.0 0.00 0.00 0.00 44 1019.9
20240418050031 7 332 0.0 0.0 0.00 0.00 0.00 43 1019.9
20240418045524 7 332 0.0 0.0 0.00 0.00 0.00 43 1019.9
20240418045018 7 332 0.0 0.0 0.00 0.00 0.00 43 1020.1
20240418044532 7 300 0.0 0.0 0.00 0.00 0.00 42 1020.1
20240418044027 7 300 0.0 0.0 0.00 0.00 0.00 41 1020.1
20240418043540 7 300 0.0 0.0 0.00 0.00 0.00 40 1020.1
20240418043032 8 300 0.0 0.0 0.00 0.00 0.00 41 1020.1
20240418042527 8 350 0.0 0.0 0.00 0.00 0.00 39 1020.0
20240418042045 8 350 0.0 0.0 0.00 0.00 0.00 40 1020.1
20240418041517 8 350 0.0 0.0 0.00 0.00 0.00 39 1020.1
20240418041030 8 350 0.0 0.0 0.00 0.00 0.00 39 1020.1
20240418040524 8 350 0.0 0.0 0.00 0.00 0.00 38 1020.1
20240418040039 8 350 0.0 0.0 0.00 0.00 0.00 38 1020.1
20240418035532 9 350 0.0 0.0 0.00 0.00 0.00 38 1020.1
20240418035024 10 350 0.0 0.0 0.00 0.00 0.00 37 1020.0
20240418034517 10 350 0.0 0.0 0.00 0.00 0.00 36 1019.9
20240418034031 10 350 0.0 0.0 0.00 0.00 0.00 34 1019.7
20240418033524 10 350 0.0 0.0 0.00 0.00 0.00 34 1019.8
20240418033018 10 350 0.0 0.0 0.00 0.00 0.00 34 1019.7
20240418032533 11 350 0.0 0.0 0.00 0.00 0.00 33 1019.6
20240418032047 11 350 0.0 0.0 0.00 0.00 0.00 33 1019.5
20240418031519 11 355 0.0 0.0 0.00 0.00 0.00 32 1019.5
20240418031033 11 355 0.0 0.0 0.00 0.00 0.00 32 1019.4
20240418030527 11 355 0.0 0.0 0.00 0.00 0.00 31 1019.3
20240418030020 12 355 0.0 0.0 0.00 0.00 0.00 31 1019.3
20240418025555 12 355 0.0 0.0 0.00 0.00 0.00 30 1019.2
20240418025026 12 355 0.0 0.0 0.00 0.00 0.00 29 1019.2
20240418024545 13 355 0.0 0.0 0.00 0.00 0.00 29 1019.2
20240418024018 13 355 0.0 0.0 0.00 0.00 0.00 28 1018.9
20240418023531 14 355 0.0 1.6 0.00 0.00 0.00 27 1019.0
20240418023026 14 355 0.0 1.6 0.00 0.00 0.00 27 1019.0
20240418022519 15 123 0.0 0.0 0.00 0.00 0.00 25 1018.9
20240418022033 15 123 0.0 0.0 0.00 0.00 0.00 24 1018.9
20240418021527 16 123 0.0 0.0 0.00 0.00 0.00 23 1018.8
20240418021041 16 123 0.0 1.6 0.00 0.00 0.00 22 1018.7
20240418020518 16 123 0.0 1.6 0.00 0.00 0.00 20 1018.7
20240418020032 16 175 0.0 1.6 0.00 0.00 0.00 20 1018.7
20240418015526 16 175 0.0 3.2 0.00 0.00 0.00 20 1018.6
20240418015019 17 331 0.0 3.2 0.00 0.00 0.00 20 1018.6
20240418014553 17 269 0.0 4.8 0.00 0.00 0.00 20 1018.5
20240418014027 17 307 0.0 6.4 0.00 0.00 0.00 19 1018.5
20240418013542 17 246 0.0 11.3 0.00 0.00 0.00 20 1018.4
20240418013016 17 318 0.0 11.3 0.00 0.00 0.00 21 1018.3
20240418012549 17 325 1.6 9.7 0.00 0.00 0.00 21 1018.3
20240418012021 17 54 0.0 4.8 0.00 0.00 0.00 20 1018.2
20240418011519 18 54 0.0 4.8 0.00 0.00 0.00 20 1018.2
20240418011013 18 284 0.0 3.2 0.00 0.00 0.00 19 1018.1
20240418010528 18 280 0.0 6.4 0.00 0.00 0.00 19 1018.1
20240418010021 18 360 0.0 6.4 0.00 0.00 0.00 19 1018.1
20240418005535 18 346 0.0 6.4 0.00 0.00 0.00 19 1018.0
20240418005026 18 126 0.0 6.4 0.00 0.00 0.00 18 1017.9
20240418004520 18 217 0.0 8.0 0.00 0.00 0.00 18 1017.9
20240418004035 19 333 1.6 8.0 0.00 0.00 0.00 18 1017.9
20240418003528 19 331 0.0 11.3 0.00 0.00 0.00 18 1018.0
20240418003026 19 195 4.8 11.3 0.00 0.00 0.00 17 1018.0
20240418002516 19 317 0.0 4.8 0.00 0.00 0.00 18 1018.0
20240418002028 20 57 1.6 6.4 0.00 0.00 0.00 18 1017.9
20240418001522 20 211 0.0 6.4 0.00 0.00 0.00 17 1017.9
20240418001017 20 248 1.6 9.7 0.00 0.00 0.00 17 1017.9
20240418000530 20 189 1.6 9.7 0.00 0.00 0.00 17 1017.9
20240418000045 20 315 0.0 12.9 0.00 0.00 0.00 17 1017.9
20240417235516 20 320 3.2 12.9 0.00 0.00 0.00 17 1017.9
20240417235015 20 292 3.2 11.3 0.00 0.00 0.00 17 1017.8
20240417234530 20 204 3.2 16.1 0.00 0.00 0.00 16 1017.8
20240417234022 20 254 3.2 16.1 0.00 0.00 0.00 16 1018.0
20240417233517 20 18 3.2 14.5 0.00 0.00 0.00 17 1018.0
20240417233031 20 20 3.2 14.5 0.00 0.00 0.00 16 1018.0
20240417232525 21 305 1.6 12.9 0.00 0.00 0.00 16 1018.0
20240417232019 20 282 3.2 12.9 0.00 0.00 0.00 15 1017.9
20240417231554 20 348 1.6 20.9 0.00 0.00 0.00 15 1017.9
20240417231026 20 291 3.2 20.9 0.00 0.00 0.00 15 1017.8
20240417230519 20 197 1.6 12.9 0.00 0.00 0.00 15 1017.9
20240417230016 20 302 3.2 12.9 0.00 0.00 0.00 15 1017.9
20240417225531 21 287 1.6 11.3 0.00 0.00 0.00 15 1017.8
20240417225025 20 305 1.6 4.8 0.00 0.00 0.00 15 1017.7
20240417224518 20 298 1.6 16.1 0.00 0.00 0.00 15 1017.9
20240417224033 20 186 3.2 17.7 0.00 0.00 0.00 15 1017.9
20240417223526 20 5 6.4 17.7 0.00 0.00 0.00 15 1017.9
20240417223021 21 350 3.2 9.7 0.00 0.00 0.00 15 1018.0
20240417222518 21 350 1.6 11.3 0.00 0.00 0.00 14 1017.9
20240417222031 21 307 1.6 11.3 0.00 0.00 0.00 14 1018.0
20240417221525 21 349 1.6 6.4 0.00 0.00 0.00 15 1018.0
20240417221038 21 326 1.6 8.0 0.00 0.00 0.00 15 1018.0
20240417220552 21 32 1.6 12.9 0.00 0.00 0.00 15 1018.0
20240417220044 21 218 4.8 12.9 0.00 0.00 0.00 14 1018.1
20240417215515 21 355 1.6 9.7 0.00 0.00 0.00 16 1018.2
20240417215030 21 10 1.6 8.0 0.00 0.00 0.00 16 1018.2
20240417214524 20 35 1.6 16.1 0.00 0.00 0.00 16 1018.3
20240417214017 21 317 0.0 16.1 0.00 0.00 0.00 16 1018.6
20240417213535 20 311 1.6 12.9 0.00 0.00 0.00 16 1018.6
20240417213048 20 355 1.6 12.9 0.00 0.00 0.00 16 1018.5
20240417212521 21 93 3.2 9.7 0.00 0.00 0.00 15 1018.7
20240417212015 21 231 0.0 14.5 0.00 0.00 0.00 16 1018.7
20240417211530 20 288 0.0 14.5 0.00 0.00 0.00 17 1018.6
20240417211022 20 140 1.6 17.7 0.00 0.00 0.00 16 1018.8
20240417210517 20 205 3.2 8.0 0.00 0.00 0.00 16 1018.6
20240417210030 20 199 1.6 20.9 0.00 0.00 0.00 17 1018.8
20240417205525 20 45 9.7 20.9 0.00 0.00 0.00 16 1018.9
20240417205022 21 294 1.6 17.7 0.00 0.00 0.00 17 1018.9
20240417204536 21 294 3.2 14.5 0.00 0.00 0.00 17 1019.0
20240417204029 20 153 1.6 8.0 0.00 0.00 0.00 17 1018.9
20240417203523 20 298 0.0 9.7 0.00 0.00 0.00 17 1019.0
20240417203017 20 349 1.6 16.1 0.00 0.00 0.00 18 1019.2
20240417202531 19 186 3.2 17.7 0.00 0.00 0.00 17 1019.3
20240417202025 20 320 3.2 14.5 0.00 0.00 0.00 18 1019.2
20240417201539 20 5 1.6 8.0 0.00 0.00 0.00 19 1019.2
20240417201031 20 28 3.2 12.9 0.00 0.00 0.00 19 1019.3
20240417200530 19 49 1.6 17.7 0.00 0.00 0.00 18 1019.2
20240417200024 19 266 3.2 11.3 0.00 0.00 0.00 19 1019.5
20240417195518 19 55 1.6 11.3 0.00 0.00 0.00 19 1019.5
20240417195052 19 355 0.0 11.3 0.00 0.00 0.00 19 1019.5
20240417194525 18 52 3.2 8.0 0.00 0.00 0.00 20 1019.6
20240417194020 18 153 3.2 9.7 0.00 0.00 0.00 21 1019.7
20240417193514 18 56 0.0 11.3 0.00 0.00 0.00 22 1019.8
20240417193048 18 323 1.6 11.3 0.00 0.00 0.00 23 1019.9
20240417192521 18 272 0.0 14.5 0.00 0.00 0.00 22 1019.9
20240417192040 18 103 1.6 12.9 0.00 0.00 0.00 23 1019.9
20240417191553 18 140 4.8 17.7 0.00 0.00 0.00 22 1020.1
20240417191025 18 143 0.0 6.4 0.00 0.00 0.00 24 1020.1
20240417190519 18 257 0.0 6.4 0.00 0.00 0.00 23 1020.2
20240417190054 18 167 3.2 11.3 0.00 0.00 0.00 22 1020.3
20240417185527 18 96 0.0 11.3 0.00 0.00 0.00 23 1020.3
20240417185020 18 134 3.2 14.5 0.00 0.00 0.00 23 1020.4
20240417184554 18 176 0.0 12.9 0.00 0.00 0.00 24 1020.4
20240417184028 17 166 0.0 12.9 0.00 0.00 0.00 24 1020.6
20240417183521 17 107 1.6 6.4 0.00 0.00 0.00 24 1020.6
20240417183019 17 272 1.6 6.4 0.00 0.00 0.00 24 1020.6
20240417182532 17 185 1.6 6.4 0.00 0.00 0.00 24 1020.8
20240417182026 17 78 1.6 12.9 0.00 0.00 0.00 27 1020.8
20240417181519 16 69 1.6 12.9 0.00 0.00 0.00 26 1021.0
20240417181014 16 324 1.6 12.9 0.00 0.00 0.00 25 1021.1